QPF
0.07 0.05 0.01 0.00 0.00 0.00 0.00 0.00 0.00 0.00 0.00 0.00 0.00 0.00 0.00 0.00 0.00 0.00 0.00 0.00 0.00 0.00 0.00 0.00 0.00 0.01 0.00 0.01 0.01 0.01 0.04 0.08 0.02 0.01 0.00 0.01 0.01 0.01 0.01 0.07 0.12 0.11 0.05
0.01 0.01 0.02 0.06 0.02 0.02 0.00 0.00 0.00 0.00 0.01 0.01 0.01 0.00 0.00 0.00 0.00 0.00 0.00 0.00 0.00 0.00 0.00 0.00 0.01 0.02 0.00 0.01 0.00 0.00 0.02 0.07 0.03 0.00 0.00 0.00 0.01 0.02 0.02 0.06 0.08 0.07 0.05
0.01 0.03 0.03 0.23 0.20 0.16 0.12 0.09 0.02 0.00 0.01 0.05 0.03 0.01 0.00 0.00 0.00 0.00 0.00 0.00 0.00 0.00 0.00 0.00 0.01 0.01 0.00 0.00 0.00 0.00 0.00 0.01 0.02 0.01 0.00 0.00 0.01 0.04 0.03 0.03 0.04 0.03 0.02
0.02 0.09 0.21 0.29 0.31 0.28 0.25 0.15 0.05 0.06 0.01 0.06 0.04 0.06 0.05 0.05 0.00 0.00 0.00 0.00 0.00 0.00 0.00 0.00 0.00 0.00 0.00 0.00 0.00 0.00 0.00 0.00 0.00 0.00 0.00 0.00 0.01 0.02 0.01 0.00 0.00 0.00 0.00
0.07 0.21 0.27 0.45 0.65 0.52 0.46 0.36 0.29 0.24 0.11 0.03 0.04 0.04 0.05 0.03 0.02 0.01 0.00 0.00 0.00 0.00 0.00 0.00 0.00 0.00 0.00 0.00 0.00 0.00 0.00 0.00 0.00 0.00 0.00 0.00 0.01 0.00 0.00 0.00 0.00 0.00 0.00
0.12 0.16 0.17 0.13 0.11 0.16 0.16 0.26 0.28 0.35 0.27 0.18 0.14 0.16 0.12 0.07 0.04 0.04 0.03 0.01 0.00 0.00 0.00 0.00 0.00 0.00 0.00 0.00 0.00 0.00 0.00 0.00 0.00 0.00 0.00 0.00 0.00 0.02 0.02 0.01 0.00 0.00 0.00
0.01 0.02 0.04 0.02 0.02 0.01 0.01 0.04 0.08 0.14 0.22 0.22 0.18 0.13 0.05 0.04 0.04 0.06 0.05 0.03 0.01 0.00 0.00 0.00 0.00 0.00 0.00 0.00 0.00 0.00 0.00 0.00 0.00 0.00 0.00 0.00 0.00 0.00 0.00 0.00 0.00 0.00 0.00
0.00 0.00 0.00 0.00 0.00 0.00 0.00 0.00 0.00 0.00 0.01 0.05 0.04 0.03 0.03 0.02 0.02 0.07 0.07 0.03 0.01 0.01 0.00 0.00 0.00 0.00 0.00 0.00 0.00 0.00 0.00 0.00 0.00 0.00 0.00 0.00 0.00 0.00 0.00 0.00 0.00 0.00 0.00
0.00 0.00 0.02 0.00 0.00 0.00 0.00 0.00 0.00 0.00 0.00 0.00 0.00 0.00 0.01 0.02 0.01 0.04 0.05 0.04 0.02 0.02 0.02 0.00 0.00 0.00 0.00 0.00 0.00 0.00 0.00 0.00 0.00 0.00 0.00 0.00 0.00 0.00 0.00 0.00 0.00 0.00 0.00
0.00 0.00 0.00 0.00 0.00 0.00 0.00 0.00 0.00 0.00 0.01 0.02 0.02 0.02 0.05 0.07 0.06 0.11 0.12 0.11 0.07 0.05 0.07 0.03 0.00 0.00 0.00 0.00 0.00 0.00 0.00 0.00 0.00 0.00 0.00 0.00 0.00 0.00 0.00 0.00 0.00 0.00 0.00
0.00 0.00 0.00 0.00 0.00 0.00 0.00 0.00 0.00 0.00 0.00 0.03 0.09 0.08 0.10 0.13 0.12 0.09 0.08 0.11 0.12 0.12 0.14 0.10 0.04 0.00 0.00 0.00 0.00 0.00 0.00 0.00 0.00 0.00 0.00 0.00 0.00 0.00 0.00 0.00 0.00 0.00 0.00
0.00 0.00 0.00 0.00 0.00 0.00 0.00 0.00 0.00 0.00 0.00 0.00 0.01 0.07 0.06 0.03 0.03 0.03 0.02 0.02 0.06 0.09 0.08 0.07 0.07 0.05 0.02 0.01 0.00 0.00 0.00 0.00 0.00 0.00 0.01 0.02 0.02 0.01 0.01 0.01 0.00 0.00 0.00
0.00 0.00 0.00 0.00 0.00 0.00 0.00 0.00 0.00 0.00 0.00 0.00 0.00 0.00 0.01 0.02 0.01 0.00 0.00 0.01 0.03 0.07 0.09 0.10 0.12 0.13 0.08 0.04 0.03 0.03 0.01 0.01 0.01 0.01 0.03 0.04 0.03 0.05 0.05 0.02 0.01 0.00 0.00
0.00 0.00 0.00 0.00 0.00 0.00 0.00 0.00 0.00 0.00 0.00 0.00 0.00 0.00 0.00 0.00 0.00 0.00 0.00 0.00 0.01 0.01 0.02 0.02 0.02 0.01 0.01 0.01 0.00 0.00 0.00 0.00 0.00 0.00 0.02 0.02 0.01 0.01 0.01 0.03 0.02 0.01 0.01
0.00 0.00 0.00 0.00 0.00 0.00 0.00 0.00 0.00 0.00 0.00 0.00 0.00 0.00 0.00 0.00 0.00 0.00 0.00 0.00 0.00 0.00 0.00 0.00 0.00 0.00 0.00 0.00 0.00 0.00 0.00 0.00 0.00 0.00 0.00 0.00 0.00 0.00 0.00 0.00 0.01 0.02 0.01
0.00 0.00 0.00 0.00 0.00 0.00 0.00 0.00 0.00 0.00 0.00 0.00 0.00 0.00 0.00 0.00 0.00 0.00 0.00 0.00 0.00 0.00 0.00 0.00 0.00 0.00 0.00 0.00 0.00 0.00 0.00 0.00 0.00 0.00 0.00 0.00 0.00 0.00 0.00 0.01 0.02 0.01 0.01
0.00 0.00 0.00 0.00 0.00 0.00 0.00 0.00 0.00 0.00 0.00 0.00 0.00 0.00 0.00 0.00 0.00 0.00 0.00 0.00 0.00 0.00 0.00 0.00 0.00 0.00 0.00 0.00 0.00 0.00 0.00 0.00 0.00 0.00 0.00 0.00 0.00 0.00 0.00 0.00 0.00 0.01 0.02
0.00 0.00 0.00 0.00 0.00 0.00 0.00 0.00 0.00 0.00 0.00 0.00 0.00 0.00 0.00 0.00 0.00 0.00 0.00 0.00 0.00 0.00 0.00 0.00 0.00 0.00 0.00 0.00 0.00 0.00 0.00 0.01 0.01 0.01 0.01 0.00 0.00 0.01 0.00 0.00 0.00 0.00 0.01
0.00 0.00 0.00 0.00 0.00 0.00 0.00 0.00 0.00 0.00 0.00 0.00 0.00 0.00 0.00 0.00 0.00 0.00 0.00 0.00 0.00 0.00 0.00 0.00 0.00 0.00 0.00 0.00 0.00 0.00 0.00 0.00 0.01 0.01 0.02 0.02 0.01 0.02 0.01 0.01 0.01 0.00 0.00
0.00 0.00 0.00 0.00 0.00 0.00 0.00 0.00 0.00 0.00 0.00 0.00 0.00 0.00 0.00 0.00 0.00 0.00 0.00 0.00 0.00 0.00 0.00 0.00 0.00 0.00 0.00 0.00 0.00 0.00 0.00 0.00 0.01 0.01 0.01 0.01 0.00 0.00 0.01 0.01 0.00 0.00 0.00
0.00 0.00 0.00 0.00 0.00 0.00 0.00 0.00 0.00 0.00 0.00 0.00 0.00 0.00 0.00 0.00 0.00 0.00 0.00 0.00 0.00 0.00 0.00 0.00 0.00 0.00 0.00 0.00 0.00 0.00 0.00 0.00 0.00 0.00 0.00 0.00 0.00 0.00 0.00 0.00 0.00 0.00 0.00
0.00 0.00 0.00 0.00 0.00 0.00 0.00 0.00 0.00 0.00 0.00 0.00 0.00 0.00 0.00 0.00 0.00 0.00 0.00 0.00 0.00 0.00 0.00 0.00 0.00 0.00 0.00 0.00 0.00 0.00 0.00 0.00 0.00 0.00 0.00 0.00 0.00 0.00 0.00 0.00 0.00 0.00 0.00
0.00 0.00 0.00 0.00 0.00 0.00 0.00 0.00 0.00 0.00 0.00 0.00 0.00 0.00 0.00 0.00 0.00 0.00 0.00 0.00 0.00 0.00 0.00 0.00 0.00 0.00 0.00 0.00 0.00 0.00 0.00 0.00 0.00 0.00 0.00 0.00 0.00 0.00 0.00 0.00 0.00 0.00 0.00
0.00 0.00 0.00 0.00 0.00 0.00 0.00 0.00 0.00 0.00 0.00 0.00 0.00 0.00 0.00 0.00 0.00 0.00 0.00 0.00 0.00 0.00 0.00 0.00 0.00 0.00 0.00 0.00 0.00 0.00 0.00 0.00 0.00 0.00 0.00 0.00 0.00 0.00 0.00 0.00 0.00 0.00 0.00
0.00 0.00 0.00 0.00 0.00 0.00 0.00 0.00 0.00 0.00 0.00 0.00 0.00 0.00 0.00 0.00 0.00 0.00 0.00 0.00 0.00 0.00 0.00 0.00 0.00 0.00 0.00 0.00 0.00 0.00 0.00 0.00 0.00 0.00 0.00 0.00 0.00 0.00 0.00 0.00 0.00 0.00 0.00
0.00 0.00 0.00 0.00 0.00 0.00 0.00 0.00 0.00 0.00 0.00 0.00 0.00 0.00 0.00 0.00 0.00 0.00 0.00 0.00 0.00 0.00 0.00 0.00 0.00 0.00 0.00 0.00 0.00 0.00 0.00 0.00 0.00 0.00 0.00 0.00 0.00 0.00 0.00 0.00 0.00 0.00 0.00
MSLP
1001.25 1002.02 1002.64 1003.08 1003.40 1003.87 1004.33 1005.04 1005.41 1005.81 1006.14 1006.94 1007.31 1007.66 1008.01 1008.49 1009.00 1009.49 1009.94 1010.28 1010.60 1010.87 1011.09 1011.33 1011.51 1011.70 1012.06 1012.40 1012.67 1012.75 1012.99 1013.46 1013.59 1013.13 1012.99 1012.70 1012.82 1012.79 1012.92 1012.74 1012.94 1013.54 1013.97
1001.52 1000.69 1001.10 1001.85 1002.26 1002.77 1003.37 1004.15 1005.00 1005.49 1005.88 1006.11 1006.71 1007.13 1007.52 1007.89 1008.25 1008.75 1009.15 1009.50 1009.93 1010.08 1010.27 1010.64 1010.78 1011.10 1011.48 1011.69 1012.13 1012.42 1012.61 1012.84 1013.26 1013.22 1012.89 1012.88 1012.88 1012.75 1012.84 1013.03 1013.04 1013.31 1013.89
1002.00 1000.86 1000.03 1001.13 1001.58 1002.48 1002.81 1003.63 1004.58 1004.81 1005.04 1005.37 1005.56 1006.17 1006.56 1007.05 1007.60 1008.00 1008.36 1008.89 1009.15 1009.35 1009.57 1009.99 1010.22 1010.62 1010.87 1011.22 1011.34 1011.88 1012.42 1012.64 1012.86 1013.08 1013.19 1012.92 1012.78 1012.85 1012.83 1012.94 1013.16 1013.58 1013.85
1001.24 1001.05 1000.15 1000.58 1001.39 1002.84 1003.27 1003.79 1004.18 1004.43 1004.66 1004.95 1005.39 1005.52 1005.80 1006.19 1006.83 1007.58 1007.82 1008.21 1008.59 1008.91 1009.09 1009.27 1009.69 1010.07 1010.23 1010.39 1010.80 1011.03 1011.87 1012.40 1012.47 1012.54 1012.92 1013.26 1013.22 1013.02 1012.94 1013.13 1013.39 1013.53 1013.69
1001.35 1001.44 1001.09 1000.85 1002.12 1003.45 1003.57 1003.88 1005.12 1005.66 1004.80 1004.43 1004.97 1005.10 1005.32 1005.67 1005.93 1006.61 1007.34 1007.88 1008.21 1008.39 1008.71 1008.83 1008.96 1009.63 1009.85 1010.10 1010.34 1010.83 1011.22 1011.83 1012.30 1012.41 1012.63 1012.80 1013.18 1013.39 1013.20 1013.22 1013.48 1013.68 1013.78
1001.39 1001.28 1002.04 1001.40 1003.08 1004.00 1003.98 1003.71 1003.39 1005.08 1005.01 1005.50 1004.23 1004.72 1005.12 1005.49 1006.07 1006.09 1006.01 1006.96 1007.64 1007.96 1008.23 1008.44 1008.60 1008.80 1009.70 1009.81 1009.93 1010.04 1010.59 1011.17 1011.71 1012.07 1012.06 1012.24 1012.44 1012.75 1013.01 1013.10 1013.42 1013.73 1013.75
1002.65 1001.32 1001.43 1001.97 1005.44 1003.52 1003.45 1004.27 1003.26 1004.87 1004.53 1004.03 1004.26 1004.70 1004.28 1004.95 1005.94 1004.76 1004.86 1005.85 1006.85 1007.36 1007.64 1008.02 1008.39 1008.36 1008.99 1009.38 1009.43 1009.73 1010.07 1010.36 1010.71 1010.96 1011.44 1011.41 1011.65 1011.78 1012.33 1012.77 1012.88 1013.13 1013.21
1002.15 1001.31 1001.40 1003.93 1005.25 1005.22 1004.24 1004.90 1004.82 1005.17 1005.45 1004.45 1004.48 1004.52 1004.75 1004.67 1005.68 1005.17 1004.89 1005.18 1006.11 1006.75 1007.00 1007.18 1007.69 1008.26 1008.37 1008.84 1009.11 1009.32 1009.44 1009.97 1009.99 1010.43 1010.44 1010.45 1010.43 1010.74 1011.27 1011.64 1012.25 1012.47 1012.70
1003.43 1003.43 1003.75 1004.44 1004.41 1004.20 1004.64 1005.19 1005.34 1005.26 1005.17 1004.31 1003.85 1004.10 1004.06 1004.39 1004.88 1004.79 1005.63 1004.48 1005.50 1006.34 1006.65 1006.54 1006.78 1007.58 1007.87 1008.27 1008.87 1009.14 1008.97 1009.26 1009.19 1009.45 1009.51 1009.77 1009.79 1009.93 1010.51 1011.57 1012.06 1012.55 1012.73
1004.81 1004.52 1004.83 1004.80 1005.09 1004.87 1005.00 1005.27 1005.08 1004.99 1004.70 1004.45 1003.99 1003.10 1003.40 1003.97 1004.10 1004.45 1004.50 1004.69 1006.00 1005.90 1006.57 1006.49 1006.71 1007.14 1007.38 1007.73 1008.37 1008.50 1008.61 1008.64 1008.95 1009.29 1009.58 1009.65 1009.71 1009.99 1010.16 1010.40 1010.85 1011.51 1011.80
1005.68 1005.46 1005.16 1005.14 1005.18 1005.02 1005.25 1005.03 1004.54 1004.35 1004.03 1003.68 1003.59 1003.52 1003.52 1004.07 1004.56 1004.55 1005.14 1005.62 1005.82 1005.93 1006.40 1006.59 1006.90 1007.05 1007.28 1007.36 1007.71 1007.88 1007.87 1007.87 1008.24 1008.65 1008.99 1009.23 1009.34 1009.44 1009.53 1009.90 1010.02 1010.00 1010.50
1005.94 1005.59 1005.13 1004.72 1004.89 1004.96 1005.12 1004.99 1004.32 1003.81 1003.83 1003.99 1004.06 1004.14 1004.34 1004.81 1004.88 1004.98 1004.90 1005.52 1006.15 1005.83 1006.27 1006.34 1006.97 1007.14 1007.20 1007.45 1007.50 1007.33 1007.51 1007.77 1007.96 1008.38 1008.67 1008.75 1008.79 1008.76 1008.70 1008.89 1009.10 1009.14 1009.04
1006.08 1005.91 1005.70 1005.47 1005.40 1005.15 1005.18 1004.93 1004.65 1004.26 1004.32 1004.53 1004.82 1004.61 1004.80 1005.68 1005.98 1005.56 1005.63 1005.82 1005.88 1006.13 1006.54 1006.34 1006.86 1007.02 1007.06 1007.09 1007.72 1007.57 1007.62 1007.63 1007.73 1008.06 1008.15 1007.97 1007.80 1007.87 1008.26 1008.54 1008.77 1008.75 1008.83
1006.65 1006.47 1006.28 1006.00 1005.65 1005.69 1005.53 1005.22 1005.41 1005.50 1005.52 1005.41 1005.45 1005.25 1005.74 1006.34 1006.90 1006.74 1006.91 1006.56 1006.86 1006.54 1006.31 1006.42 1006.57 1006.67 1006.53 1006.69 1007.25 1007.17 1006.96 1007.29 1007.25 1007.14 1007.50 1007.41 1007.38 1007.65 1007.80 1007.92 1008.11 1008.02 1008.20
1006.79 1006.77 1006.72 1006.50 1006.29 1006.31 1006.32 1006.26 1005.88 1005.95 1006.25 1006.31 1006.00 1005.80 1006.46 1007.06 1007.15 1007.47 1007.24 1006.83 1006.69 1006.88 1007.04 1006.71 1006.59 1006.42 1006.11 1006.16 1006.45 1006.63 1006.46 1006.77 1007.02 1006.94 1006.99 1007.21 1007.24 1007.43 1007.35 1007.25 1007.26 1007.35 1007.10
1006.85 1006.86 1006.92 1006.48 1006.45 1006.33 1006.34 1006.70 1006.21 1005.95 1006.52 1006.42 1006.35 1006.09 1006.90 1007.47 1007.48 1007.80 1007.63 1007.38 1007.25 1007.06 1007.44 1007.36 1007.05 1006.86 1006.63 1006.62 1006.36 1005.93 1006.03 1006.13 1006.31 1006.47 1006.32 1006.55 1006.68 1006.75 1006.82 1006.69 1006.79 1006.56 1006.29
1007.16 1006.88 1006.54 1006.46 1006.79 1006.75 1006.56 1006.96 1006.79 1006.18 1005.98 1006.55 1006.83 1006.60 1006.63 1007.59 1007.89 1007.77 1007.68 1007.69 1007.67 1007.62 1007.48 1007.30 1007.24 1007.07 1006.79 1006.42 1005.93 1005.78 1005.67 1005.68 1005.87 1005.82 1005.91 1005.73 1005.97 1006.12 1006.49 1006.41 1006.28 1005.87 1005.54
1006.89 1007.02 1006.83 1006.51 1006.69 1006.89 1006.90 1006.70 1006.62 1006.68 1006.49 1006.58 1006.75 1007.21 1007.58 1008.35 1008.22 1008.17 1008.01 1007.95 1008.14 1008.09 1007.81 1007.52 1007.18 1006.89 1006.62 1006.52 1006.35 1006.17 1005.84 1005.43 1005.39 1005.40 1005.48 1005.45 1005.45 1005.44 1005.79 1005.69 1005.73 1005.30 1004.94
1007.04 1006.77 1006.84 1006.57 1006.77 1006.85 1006.48 1006.51 1006.34 1006.32 1006.48 1006.70 1007.07 1007.55 1007.84 1008.17 1007.87 1007.65 1008.01 1008.09 1008.10 1007.83 1007.81 1007.61 1007.28 1007.11 1006.87 1006.51 1006.25 1006.07 1005.69 1005.52 1005.42 1005.27 1005.13 1005.11 1005.07 1005.26 1005.21 1005.17 1005.07 1005.05 1005.12
1007.04 1006.65 1006.82 1006.61 1006.77 1006.92 1006.53 1006.17 1006.46 1006.38 1006.41 1006.52 1006.91 1007.25 1007.71 1007.95 1007.81 1007.68 1007.92 1008.06 1007.84 1007.62 1007.66 1007.48 1006.97 1006.69 1006.58 1006.38 1006.18 1005.97 1005.56 1005.54 1005.45 1005.39 1005.19 1005.31 1005.18 1005.11 1005.11 1005.09 1004.96 1004.89 1004.92
1006.82 1006.85 1006.76 1006.67 1006.89 1006.86 1006.60 1006.44 1006.32 1006.57 1006.67 1006.65 1006.69 1007.07 1007.17 1007.40 1007.71 1007.74 1008.01 1007.91 1007.66 1007.48 1007.38 1007.34 1007.17 1007.01 1006.81 1006.70 1006.66 1006.60 1006.37 1006.15 1005.93 1005.62 1005.63 1005.55 1005.42 1005.22 1005.16 1005.19 1005.07 1004.99 1005.29
1006.94 1006.99 1006.94 1006.84 1007.02 1006.94 1006.90 1006.69 1006.70 1006.63 1006.73 1006.85 1006.93 1007.11 1007.21 1007.32 1007.70 1007.97 1007.83 1007.41 1007.27 1007.25 1007.04 1006.92 1007.21 1007.13 1007.13 1007.06 1006.98 1006.74 1006.65 1006.44 1006.17 1006.09 1005.99 1005.99 1005.73 1005.50 1005.71 1005.51 1005.50 1005.49 1005.44
1006.70 1006.90 1006.90 1006.96 1007.12 1007.00 1006.84 1006.98 1007.02 1007.08 1006.95 1006.80 1006.81 1007.01 1007.10 1007.23 1007.40 1007.53 1007.62 1007.55 1007.47 1007.26 1007.19 1007.05 1006.96 1006.77 1006.71 1006.50 1006.65 1006.65 1006.31 1006.43 1006.39 1006.32 1006.31 1006.11 1006.12 1006.19 1006.03 1006.07 1005.99 1005.87 1006.11
1006.84 1006.88 1006.81 1006.68 1006.78 1006.80 1006.84 1007.04 1007.20 1007.13 1007.16 1007.22 1007.15 1007.25 1007.25 1007.19 1007.34 1007.36 1007.35 1007.26 1007.10 1006.83 1006.69 1006.66 1006.50 1006.43 1006.63 1006.69 1006.40 1006.17 1006.23 1006.27 1006.39 1006.57 1006.46 1006.61 1006.45 1006.29 1006.35 1006.44 1006.64 1006.49 1006.40
1006.54 1006.56 1006.49 1006.71 1006.95 1006.87 1006.85 1006.85 1006.80 1006.65 1006.55 1006.35 1006.29 1006.27 1006.24 1006.49 1006.66 1006.62 1006.50 1006.67 1006.82 1006.89 1006.92 1006.79 1006.58 1006.40 1006.18 1006.15 1006.19 1006.30 1006.38 1006.42 1006.24 1006.45 1006.47 1006.56 1006.29 1006.43 1006.73 1006.59 1006.76 1007.17 1007.12
1006.38 1006.41 1006.38 1006.50 1006.56 1006.61 1006.65 1006.58 1006.69 1006.50 1006.25 1006.10 1006.03 1006.01 1005.97 1006.05 1006.03 1006.22 1006.30 1006.39 1006.33 1006.36 1006.36 1006.21 1006.10 1006.08 1006.13 1006.17 1006.14 1006.13 1006.25 1006.16 1006.14 1006.25 1006.31 1006.45 1006.40 1006.39 1006.57 1006.70 1006.92 1007.21 1007.20
Thickness
5802 5801 5802 5799 5800 5799 5799 5795 5795 5795 5795 5787 5785 5783 5780 5776 5772 5766 5761 5758 5755 5754 5753 5751 5750 5749 5746 5743 5740 5740 5736 5729 5724 5728 5730 5735 5733 5734 5734 5736 5734 5730 5728
5791 5803 5806 5804 5800 5797 5799 5796 5790 5787 5786 5786 5782 5781 5779 5776 5774 5769 5765 5761 5757 5757 5756 5753 5753 5752 5748 5747 5741 5737 5735 5733 5726 5721 5726 5726 5726 5728 5728 5727 5727 5727 5723
5777 5795 5806 5801 5786 5792 5794 5791 5784 5785 5785 5786 5787 5783 5781 5777 5773 5771 5766 5762 5761 5759 5757 5754 5752 5750 5749 5746 5746 5738 5731 5729 5727 5723 5719 5723 5724 5723 5723 5723 5722 5720 5718
5775 5782 5796 5795 5790 5779 5779 5780 5779 5781 5780 5782 5780 5781 5780 5779 5775 5766 5764 5761 5759 5757 5757 5757 5752 5749 5750 5749 5745 5744 5732 5726 5726 5725 5719 5714 5716 5719 5719 5716 5714 5715 5714
5758 5760 5772 5781 5774 5765 5766 5766 5757 5754 5764 5773 5771 5774 5775 5776 5777 5771 5764 5758 5756 5757 5754 5754 5756 5746 5747 5746 5745 5739 5734 5724 5720 5720 5716 5715 5711 5709 5711 5711 5709 5708 5706
5739 5745 5748 5759 5752 5748 5740 5730 5753 5742 5752 5740 5762 5763 5762 5761 5762 5764 5767 5761 5757 5753 5752 5751 5752 5750 5740 5741 5742 5742 5735 5728 5719 5716 5716 5714 5710 5706 5705 5706 5704 5701 5699
5712 5730 5736 5735 5719 5740 5742 5730 5747 5731 5738 5726 5740 5750 5758 5746 5740 5760 5767 5761 5752 5750 5749 5746 5745 5747 5742 5738 5740 5739 5735 5733 5727 5723 5716 5717 5716 5714 5708 5702 5701 5699 5698
5724 5730 5736 5722 5709 5715 5723 5719 5723 5716 5718 5728 5739 5744 5748 5749 5739 5748 5754 5755 5749 5746 5747 5747 5744 5739 5741 5737 5736 5736 5736 5729 5728 5724 5723 5721 5722 5718 5713 5709 5701 5700 5700
5711 5713 5712 5712 5713 5715 5711 5710 5713 5718 5722 5732 5741 5742 5746 5743 5740 5741 5736 5747 5741 5737 5737 5743 5746 5739 5738 5734 5731 5730 5734 5729 5729 5725 5724 5721 5721 5719 5713 5704 5700 5693 5689
5692 5698 5696 5698 5697 5700 5703 5706 5708 5709 5718 5725 5729 5740 5738 5734 5735 5733 5734 5734 5721 5726 5728 5734 5738 5736 5735 5731 5729 5728 5727 5724 5723 5721 5717 5717 5716 5714 5710 5709 5703 5695 5691
5679 5685 5689 5690 5692 5694 5695 5700 5707 5711 5717 5722 5723 5725 5726 5724 5723 5723 5716 5714 5713 5716 5719 5723 5724 5727 5726 5725 5723 5723 5724 5724 5722 5718 5714 5712 5712 5711 5709 5704 5703 5701 5695
5677 5682 5689 5694 5693 5694 5690 5692 5701 5707 5710 5712 5712 5715 5713 5709 5712 5711 5712 5707 5708 5714 5714 5716 5714 5714 5714 5715 5716 5718 5716 5715 5715 5710 5708 5707 5707 5708 5707 5703 5701 5701 5701
5674 5677 5681 5685 5687 5690 5688 5689 5694 5699 5699 5698 5698 5705 5704 5696 5694 5697 5702 5702 5705 5706 5704 5708 5704 5702 5705 5706 5703 5705 5705 5707 5706 5703 5704 5705 5704 5703 5702 5699 5695 5695 5696
5665 5669 5671 5675 5679 5680 5682 5685 5682 5681 5683 5685 5686 5690 5688 5684 5680 5682 5684 5687 5686 5693 5695 5695 5694 5695 5696 5695 5694 5697 5700 5698 5699 5701 5698 5699 5699 5695 5695 5694 5690 5692 5692
5661 5661 5662 5664 5668 5667 5667 5668 5673 5672 5671 5671 5676 5679 5676 5671 5671 5665 5670 5678 5681 5679 5679 5682 5684 5685 5688 5690 5689 5689 5693 5691 5689 5690 5690 5687 5687 5686 5687 5688 5690 5687 5690
5654 5656 5655 5660 5662 5664 5662 5659 5662 5665 5660 5660 5662 5671 5664 5657 5656 5652 5656 5659 5661 5665 5665 5667 5670 5671 5673 5673 5677 5683 5683 5684 5682 5682 5686 5683 5681 5679 5680 5681 5681 5683 5686
5645 5649 5652 5654 5652 5653 5656 5653 5654 5660 5661 5655 5654 5657 5657 5650 5648 5649 5650 5648 5647 5648 5655 5655 5655 5656 5659 5663 5668 5671 5674 5674 5673 5676 5675 5678 5676 5674 5671 5671 5672 5677 5679
5641 5642 5644 5648 5646 5643 5644 5649 5650 5651 5653 5656 5650 5647 5643 5637 5638 5638 5639 5640 5641 5638 5642 5642 5644 5645 5647 5649 5652 5654 5659 5664 5666 5667 5667 5668 5668 5669 5664 5664 5663 5667 5671
5633 5638 5637 5640 5641 5641 5645 5645 5647 5650 5651 5649 5644 5639 5635 5632 5636 5638 5635 5635 5635 5636 5635 5635 5636 5635 5636 5639 5642 5645 5649 5652 5654 5657 5658 5658 5659 5656 5656 5657 5657 5655 5655
5629 5635 5635 5637 5637 5637 5642 5646 5642 5644 5645 5645 5642 5638 5631 5630 5632 5631 5628 5627 5629 5631 5629 5629 5631 5632 5633 5633 5635 5636 5640 5640 5640 5640 5642 5641 5643 5644 5644 5643 5645 5647 5645
5630 5629 5632 5633 5634 5635 5637 5639 5641 5637 5636 5637 5639 5635 5629 5629 5624 5621 5617 5617 5618 5619 5618 5618 5618 5619 5620 5621 5621 5620 5620 5621 5622 5624 5623 5623 5625 5627 5628 5628 5629 5630 5628
5624 5623 5625 5628 5627 5629 5630 5633 5633 5635 5633 5632 5631 5628 5622 5623 5616 5611 5612 5614 5613 5611 5610 5610 5607 5606 5605 5604 5605 5606 5606 5607 5607 5607 5607 5606 5608 5611 5609 5610 5610 5611 5611
5624 5621 5622 5622 5622 5624 5628 5626 5626 5626 5627 5627 5626 5625 5622 5618 5614 5610 5606 5604 5602 5602 5601 5600 5600 5599 5598 5599 5597 5596 5597 5595 5594 5594 5592 5593 5592 5592 5593 5592 5593 5594 5592
5618 5618 5619 5621 5621 5622 5622 5620 5617 5618 5617 5616 5615 5612 5610 5608 5603 5602 5600 5599 5598 5598 5597 5595 5595 5594 5591 5589 5589 5589 5587 5585 5582 5581 5580 5577 5577 5577 5577 5577 5576 5576 5577
5617 5616 5616 5615 5614 5614 5614 5614 5615 5616 5616 5617 5617 5615 5612 5608 5603 5602 5601 5595 5591 5587 5584 5583 5583 5583 5584 5583 5580 5577 5575 5574 5574 5572 5571 5569 5569 5567 5564 5564 5563 5561 5560
5612 5611 5610 5608 5608 5607 5607 5609 5607 5608 5610 5609 5608 5605 5602 5599 5597 5593 5590 5587 5586 5583 5581 5579 5577 5576 5574 5572 5570 5570 5569 5568 5567 5567 5566 5562 5561 5560 5557 5555 5554 5550 5550